Погода Старая Русса

Погода Старая Русса : погода сейчас, прогноз погоды и архив. Всё, что Вы хотите узнать о погоде Старая Русса!

Хотите узнать прогноз погоды Старая Русса? Тогда Вам сюда: Погода Старая Русса

Поиск расширенной информации на нашем сайте:

Другие новости

Новости СМИ2

Главная страница сайта

Новости сайта

03.07.2017

Напоминаем, что на нашем специализированном сайте Метеоцентр.Азия вы можете получить высокодетализированные автоматические прогнозы погоды по пунктам России, СНГ и мира в авиационном формате (включающие направление и скорость ветра, видимость, явления погоды, количество и форму облачности, нижнюю и верхнюю границу облачности).


Погода Старая Русса - сегодня

Время (UTC), дата Ветер
(°,м/с) 
Видим.   Явления Облачность Т
(°С)
Тd
(°С)
f(%) Тe
(°С)
Pmin
(гПа)
dP
(гПа)
Po
(мм)
O2
(г/м3)
Тmin Tmax R s Состояние
почвы
21 11.10.18 200 (Ю) 4000 м  дымка  ясно 
+3.2 +2.4 94 +4  1033.5  773  307           
00 12.10.18 200 (Ю) 4000 м  дымка  ясно 
+1.1 +0.3 94 +2  1033.6  773  310           
06 12.10.18 180 (Ю) 20000 м    ясно 
+5.6 +4.7 94 +6  1033.5  773  304  +1         
09 12.10.18 220 (ЮЗ) 20000 м    ясно 
+14.3 +9.4 72 +15  1033.1  -0.3  773  294           
12 12.10.18 260 (З) 20000 м    ясно 
+17.6 +9 57 +18  1031.4  -1.6  771  290           
15 12.10.18 180 (Ю) 20000 м    ясно 
+14.5 +8.8 69 +16  1030  -1.5  770  293           
18 12.10.18 200 (Ю) 20000 м    ясно 
+8.6 +6.4 86 +10  1030  -0.1  770  300    +18.3       
21 12.10.18 210 (ЮЗ) 20000 м    ясно 
+7.9 +6.8 93 +9  1029.9  -0.1  770  300           
00 13.10.18 200 (Ю) 20000 м    10/0 средняя 
[Ac und]
+8.3 +7.2 93 +8  1029.5  -0.4  770  300           
09 13.10.18 240 (ЮЗ) 20000 м    3/0 средняя, верхняя 
[Ac trans|Ci fib]
+14.5 +10.1 75 +16  1028.3  -0.4  769  292           
12 13.10.18 210 (ЮЗ) 20000 м    8/0 верхняя 
[Ci fib]
+17.7 +10.4 62 +20  1027.7  -0.5  769  289           
15 13.10.18 тихо ()   20000 м    8/0 средняя, верхняя 
[Ac trans|Ci fib]
+15.5 +10.8 74 +17  1027  -0.8  768  291           
18 13.10.18 220 (ЮЗ) 20000 м    ясно 
+12 +10.1 88 +14  1027.3  0.3  768  295    +18.4       
21 13.10.18 220 (ЮЗ) 20000 м    ясно 
+10.9 +9.5 91 +12  1027.6  0.3  768  296           
00 14.10.18 230 (ЮЗ) 20000 м    ясно 
+10.7 +9.7 94 +12  1027.4  -0.2  768  296           
09 14.10.18 220 (ЮЗ) 20000 м    3/0 верхняя 
[Ci fib]
+16.4 +12 75 +20  1027.5  768  290           
12 14.10.18 210 (ЮЗ) 20000 м    3/0 верхняя 
[Ci fib]
+20.1 +11.6 58 +23  1027.1  -0.4  768  286           
15 14.10.18 250 (З) 20000 м    ясно 
+17.3 +11.2 67 +21  1026.7  -0.4  768  289           
18 14.10.18 230 (ЮЗ) 20000 м    ясно 
+9.9 +8.7 92 +11  1026.7  -0.1  768  297    +20.9       
21 14.10.18 тихо ()   4000 м  дымка  ясно 
+7 +6.1 94 +7  1026.8  0.1  768  301           
00 15.10.18 тихо ()   4000 м  дымка  ясно 
+4.5 +3.8 95 +5  1026.9  768  304           
06 15.10.18 190 (Ю) 20000 м    ясно 
+8.3 +7 92 +9  1026.2  -0.4  767  299  +4.4         
09 15.10.18 160 (Ю) 20000 м    ясно 
+14.9 +9.3 69 +16  1026.1  -0.1  767  292           
12 15.10.18 200 (Ю) 20000 м    ясно 
+18.8 +6.9 46 +20  1025.1  -0.9  767  288           
15 15.10.18 180 (Ю) 20000 м    ясно 
+15.5 +5.7 52 +16  1024.7  -0.5  766  291           
Время (UTC), дата Ветер
(°,м/с) 
Видим.   Явления Облачность Т
(°С)
Тd
(°С)
f(%) Тe
(°С)
Pmin
(гПа)
dP
(гПа)
Po
(мм)
O2
(г/м3)
Тmin Tmax R s Состояние
почвы

Для получения пояснительной информации подведите курсор к названию столбца.

ПОГОДА Старая Русса - архив

Всё, что Вы хотите узнать о погоде Старая Русса - удобно и подробно!

Выберите нужную дату (начиная с 1 января 2015* года) и нажмите кнопку "Найти".
Будут отображены архивные сводки погоды по пункту Старая Русса, начиная с указанной даты.


Отображать данные в формате CSV (для использования в таблицах Excel)


Внимание! Наш архив погоды предназначен исключительно для личного некоммерческого использования в познавательных целях. Если Вам необходимы официальные справки о состоянии погоды (для производственных, юридических, коммерческих и т.п. целей), обращайтесь в органы Росгидромета.

*Примечание: данная дата относится к архиву по метеостанциям СССР (Россия, СНГ, Балтия).
Архив по метеостанциям Зарубежной Европы и Азии (кроме Китая) хранится 10 дней, по другим регионам земного шара (Китай, Африка, Америка, Австралия, Океания) - 1 день.

Старая Русса - район местоположения метеостанции


Название, широта, долгота, высота метеостанции:
Старая Русса 58°ш. 31.3°д. 25 м над ур. моря [Российская Федерация]

Дополнительная информация

В oтличие oт бoльшинства пoгoдных сайтoв мы публикуем пoдрoбную метеoинфoрмацию в детальнoм прoфессиoнальнoм фoрмате.

Характеристики температуры и влажнoсти вoздуха измеряются на высoте 2 м в тени вдали oт зданий и деревьев.
Скoрoсть ветра измеряется на высoте 10 м (на урoвне рoста челoвека скoрoсть ветра ниже в 1.5-2 раза). Если метеoстанция нахoдится в гoрoде или в лесу, тo скoрoсть ветра занижена на 2-4 м/с пo сравнению с oткрытым местoм. Скoрoсть ветра над акватoриями крупных рек и oзёр, а также на вершинах хoлмoв на 2-5 м/с выше, чем в oбычных услoвиях.
Атмoсфернoе давление в разных тoчках местнoсти мoжет значительнo oтличаться oт давления на метеoстанции, в зависимoсти oт услoвий рельефа (при пoдъёме на 10 м давление пoнижается примернo на 1 мм рт.ст.).